Simultaneous Nadir Overpasses (SNOs) Predictions

Prediction of SNOs between METOP-A and TERRA Satellite Orbit:

Table of predicted SNOs for the next 14.0 days since TLE Epoch: 10/31/2015
Index Date (METOP-A) Time (METOP-A) Lat,Lon (METOP-A) SZA (METOP-A ) Date (TERRA) Time (TERRA) Lat,Lon (TERRA) SZA (TERRA ) Distance(km) Time Diff (sec)
1 11/01/2015 15:25:59 81.32, -4.29 98.91 11/01/2015 15:26:40 81.31, -4.16 98.94 2.36 41
2 11/01/2015 16:16:38 -81.33, 163.71 81.00 11/01/2015 16:16:06 -81.33, 163.77 81.01 0.97 32
3 11/04/2015 11:00:16 81.32, 62.33 99.81 11/04/2015 11:00:57 81.33, 62.51 99.86 3.01 41
4 11/04/2015 11:50:56 -81.32,-130.02 80.14 11/04/2015 11:50:24 -81.32,-129.92 80.15 1.66 32
5 11/07/2015 06:34:33 81.32, 128.90 100.67 11/07/2015 06:35:15 81.33, 128.98 100.71 1.52 42
6 11
